Location: Strawberry
(45.6646°N, 111.9596°W)
Time: 20:43:42
(UTC+00:00)

Courier 1B - Pass Details

Date: 06 October 2022
Orbit: 962 x 1209 km, 28.3° (Epoch: 29 November)

Event Time Altitude Azimuth Distance (km) Brightness Sun altitude
Rises 21:12:18 0° 233° (SW) 4,058 11.7 32.8°
Reaches altitude 10° 21:16:06 10° 217° (SW) 3,062 11.6 32.4°
Maximum altitude 21:21:04 19° 175° (S) 2,402 10.5 31.8°
Drops below altitude 10° 21:25:52 10° 133° (SE) 2,947 10.2 31.3°
Sets 21:29:26 0° 116° (ESE) 3,856 10.5 30.9°
